Weather History for KJWY - May, 2013

Change the Weather History Date:

Monday, May 27, 2013

  Actual Average (KRBD) Record (KRBD)
Temperature  
Mean Temperature 78 °F -  
Max Temperature 86 °F 84 °F 95 °F (2011)
Min Temperature 69 °F 65 °F 61 °F (2003)
Cooling Degree Days 12    
Growing Degree Days 28 (Base 50)    
Moisture  
Dew Point 66 °F    
Average Humidity 70    
Maximum Humidity 91    
Minimum Humidity 48    
Precipitation  
Precipitation 0.00 in - - ()
Sea Level Pressure  
Sea Level Pressure 29.94 in    
Wind  
Wind Speed 10 mph (SSE)    
Max Wind Speed 18 mph    
Max Gust Speed 24 mph    
Visibility 10 miles    
Events      
Averages and records for this station are not official NWS values.
T = Trace of Precipitation, MM = Missing Value Source: NWS Daily Summary

Daily Weather History Graph

Daily Weather History Graph

Search for Another Location

Airport or City:

Trip Planner

Search our weather history database for the weather conditions in past years. The results will help you decide how hot, cold, wet, or windy it might be!

Date:

Astronomy

May. 27, 2013 Rise Set
Actual Time 6:22 AM CDT 8:27 PM CDT
Civil Twilight 5:55 AM CDT 8:55 PM CDT
Nautical Twilight 5:21 AM CDT 9:28 PM CDT
Astronomical Twilight 4:45 AM CDT 10:05 PM CDT
Moon 11:11 PM CDT (5/27) 8:59 AM CDT (5/27)
Length of Visible Light 14h 59m
Length of Day
14h 04m
Waning Gibbous, 91% of the Moon is Illuminated
May 27
Waning Gibbous
May 31
Last Quarter
Jun 8
New
Jun 16
First Quarter
Jun 23
Full

Hourly Weather History & Observations

Time (CDT) Temp. Heat Index Dew Point Humidity Pressure Visibility Wind Dir Wind Speed Gust Speed Precip Events Conditions
12:15 AM 73.6 °F - 65.8 °F 77% 30.02 in 10.0 mi SSE 5.8 mph - N/A   Scattered Clouds
12:35 AM 73.8 °F - 66.2 °F 77% 30.02 in 10.0 mi SSE 5.8 mph - N/A   Scattered Clouds
12:55 AM 73.4 °F - 66.2 °F 78% 30.01 in 10.0 mi SSE 9.2 mph - N/A   Clear
1:15 AM 73.4 °F - 66.4 °F 79% 30.01 in 10.0 mi South 8.1 mph - N/A   Clear
1:35 AM 73.4 °F - 66.4 °F 79% 30.01 in 10.0 mi South 9.2 mph - N/A   Clear
1:55 AM 73.4 °F - 66.2 °F 78% 30.00 in 10.0 mi South 8.1 mph - N/A   Clear
2:15 AM 73.0 °F - 66.2 °F 79% 30.00 in 10.0 mi SSE 9.2 mph - N/A   Clear
2:35 AM 72.3 °F - 65.8 °F 80% 30.00 in 10.0 mi South 11.5 mph - N/A   Clear
2:55 AM 72.0 °F - 65.5 °F 80% 29.99 in 10.0 mi South 9.2 mph - N/A   Clear
3:15 AM 71.2 °F - 65.5 °F 82% 29.98 in 10.0 mi South 9.2 mph - N/A   Clear
3:35 AM 70.9 °F - 65.5 °F 83% 29.98 in 10.0 mi South 9.2 mph - N/A   Clear
3:55 AM 70.7 °F - 65.5 °F 83% 29.97 in 10.0 mi SSE 9.2 mph - N/A   Clear
4:15 AM 70.3 °F - 65.7 °F 85% 29.97 in 10.0 mi SSE 9.2 mph - N/A   Clear
4:35 AM 69.8 °F - 66.2 °F 88% 29.97 in 10.0 mi SSE 8.1 mph - N/A   Clear
4:55 AM 70.0 °F - 66.7 °F 89% 29.96 in 10.0 mi South 9.2 mph - N/A   Mostly Cloudy
5:15 AM 70.2 °F - 67.1 °F 90% 29.97 in 10.0 mi South 10.4 mph - N/A   Overcast
5:35 AM 70.0 °F - 67.1 °F 91% 29.97 in 10.0 mi South 10.4 mph - N/A   Overcast
5:55 AM 69.8 °F - 67.1 °F 91% 29.96 in 7.0 mi South 9.2 mph - N/A   Overcast
6:15 AM 70.0 °F - 67.1 °F 91% 29.97 in 7.0 mi South 11.5 mph 18.4 mph N/A   Overcast
6:35 AM 70.2 °F - 67.1 °F 90% 29.97 in 7.0 mi SSE 11.5 mph 17.3 mph N/A   Overcast
6:55 AM 70.3 °F - 67.1 °F 89% 29.98 in 7.0 mi SSE 11.5 mph 19.6 mph N/A   Overcast
7:15 AM 70.3 °F - 67.3 °F 90% 29.99 in 7.0 mi South 10.4 mph - N/A   Overcast
7:35 AM 70.7 °F - 67.3 °F 89% 30.00 in 7.0 mi South 11.5 mph - N/A   Overcast
7:55 AM 71.4 °F - 67.1 °F 86% 30.00 in 7.0 mi South 10.4 mph - N/A   Overcast
8:15 AM 71.6 °F - 67.1 °F 86% 30.00 in 7.0 mi South 10.4 mph - N/A   Overcast
8:35 AM 72.5 °F - 66.7 °F 82% 30.00 in 7.0 mi South 12.7 mph 18.4 mph N/A   Overcast
8:55 AM 73.4 °F - 66.7 °F 80% 30.00 in 10.0 mi SSE 12.7 mph 19.6 mph N/A   Overcast
9:15 AM 73.4 °F - 66.4 °F 79% 30.00 in 10.0 mi South 15.0 mph 20.7 mph N/A   Overcast
9:35 AM 74.8 °F - 66.7 °F 76% 30.00 in 10.0 mi South 13.8 mph 20.7 mph N/A   Overcast
9:55 AM 75.2 °F - 66.2 °F 73% 30.00 in 10.0 mi South 12.7 mph 19.6 mph N/A   Overcast
10:15 AM 74.8 °F - 66.6 °F 75% 30.00 in 10.0 mi South 12.7 mph 16.1 mph N/A   Overcast
10:35 AM 75.4 °F - 66.4 °F 73% 29.99 in 10.0 mi South 12.7 mph 18.4 mph N/A   Overcast
10:55 AM 76.5 °F - 66.4 °F 71% 29.99 in 10.0 mi South 13.8 mph 20.7 mph N/A   Overcast
11:15 AM 76.6 °F - 66.4 °F 70% 29.99 in 10.0 mi South 15.0 mph 21.9 mph N/A   Overcast
11:35 AM 77.0 °F - 66.7 °F 70% 29.99 in 10.0 mi South 12.7 mph 19.6 mph N/A   Overcast
11:55 AM 78.6 °F - 66.4 °F 66% 29.99 in 10.0 mi South 13.8 mph 19.6 mph N/A   Overcast
12:15 PM 78.1 °F - 66.0 °F 66% 29.98 in 10.0 mi South 16.1 mph 21.9 mph N/A   Overcast
12:35 PM 78.8 °F - 65.7 °F 64% 29.98 in 10.0 mi South 16.1 mph 23.0 mph N/A   Overcast
12:55 PM 79.7 °F - 65.7 °F 62% 29.98 in 10.0 mi South 12.7 mph 19.6 mph N/A   Overcast
1:15 PM 80.2 °F 82.2 °F 65.5 °F 61% 29.97 in 10.0 mi South 15.0 mph 20.7 mph N/A   Overcast
1:35 PM 80.2 °F 82.1 °F 65.3 °F 60% 29.97 in 10.0 mi South 17.3 mph 24.2 mph N/A   Overcast
1:55 PM 80.4 °F 82.3 °F 65.3 °F 60% 29.96 in 10.0 mi South 11.5 mph 24.2 mph N/A   Overcast
2:15 PM 81.5 °F 83.4 °F 65.5 °F 58% 29.95 in 10.0 mi South 18.4 mph 21.9 mph N/A   Overcast
2:35 PM 81.7 °F 83.6 °F 65.5 °F 58% 29.94 in 10.0 mi South 15.0 mph 23.0 mph N/A   Overcast
2:55 PM 82.4 °F 84.2 °F 65.1 °F 56% 29.94 in 10.0 mi South 17.3 mph 21.9 mph N/A   Overcast
3:15 PM 82.6 °F 84.3 °F 65.1 °F 55% 29.93 in 10.0 mi South 15.0 mph - N/A   Overcast
3:35 PM 83.1 °F 84.8 °F 65.1 °F 54% 29.92 in 10.0 mi South 12.7 mph 24.2 mph N/A   Overcast
3:55 PM 84.0 °F 85.6 °F 64.8 °F 52% 29.92 in 10.0 mi South 15.0 mph 19.6 mph N/A   Overcast
4:15 PM 84.0 °F 85.8 °F 64.9 °F 53% 29.91 in 10.0 mi South 12.7 mph 21.9 mph N/A   Overcast
4:35 PM 84.7 °F 86.6 °F 65.5 °F 52% 29.90 in 10.0 mi SSE 15.0 mph 21.9 mph N/A   Overcast
4:55 PM 85.3 °F 86.8 °F 64.8 °F 50% 29.89 in 10.0 mi South 16.1 mph 20.7 mph N/A   Mostly Cloudy
5:15 PM 84.6 °F 86.1 °F 64.8 °F 51% 29.88 in 10.0 mi South 13.8 mph 18.4 mph N/A   Mostly Cloudy
5:35 PM 85.1 °F 86.4 °F 64.2 °F 49% 29.87 in 10.0 mi South 16.1 mph 21.9 mph N/A   Mostly Cloudy
5:55 PM 86.2 °F 87.6 °F 64.6 °F 48% 29.87 in 10.0 mi South 16.1 mph 21.9 mph N/A   Scattered Clouds
6:15 PM 86.0 °F 87.3 °F 64.4 °F 48% 29.85 in 10.0 mi South 16.1 mph 21.9 mph N/A   Clear
6:35 PM 86.0 °F 87.9 °F 65.1 °F 50% 29.84 in 10.0 mi SSE 15.0 mph 20.7 mph N/A   Clear
6:55 PM 85.6 °F 86.8 °F 64.0 °F 48% 29.83 in 10.0 mi South 15.0 mph 18.4 mph N/A   Clear
7:15 PM 85.3 °F 86.6 °F 64.4 °F 49% 29.82 in 10.0 mi SSE 10.4 mph - N/A   Clear
7:35 PM 82.6 °F 84.1 °F 64.6 °F 54% 29.83 in 10.0 mi SSE 12.7 mph 16.1 mph N/A   Clear
7:55 PM 81.5 °F 83.4 °F 65.3 °F 58% 29.84 in 10.0 mi SSE 9.2 mph - N/A   Clear
8:15 PM 80.6 °F 82.4 °F 65.3 °F 59% 29.84 in 10.0 mi SSE 11.5 mph - N/A   Clear
8:35 PM 79.7 °F - 65.5 °F 62% 29.85 in 10.0 mi SE 8.1 mph - N/A   Clear
8:55 PM 78.8 °F - 65.7 °F 64% 29.85 in 10.0 mi SSE 6.9 mph - N/A   Clear
9:15 PM 78.1 °F - 65.8 °F 66% 29.85 in 10.0 mi SE 6.9 mph - N/A   Clear
9:35 PM 77.4 °F - 65.8 °F 67% 29.85 in 10.0 mi SSE 5.8 mph - N/A   Clear
9:55 PM 77.0 °F - 66.2 °F 69% 29.86 in 10.0 mi SSE 8.1 mph - N/A   Clear
10:15 PM 77.0 °F - 66.4 °F 70% 29.86 in 10.0 mi SSE 8.1 mph - N/A   Clear
10:35 PM 76.5 °F - 66.6 °F 71% 29.87 in 10.0 mi SSE 6.9 mph - N/A   Clear
10:55 PM 76.1 °F - 66.7 °F 73% 29.88 in 10.0 mi SSE 8.1 mph - N/A   Clear
11:15 PM 76.1 °F - 66.6 °F 72% 29.88 in 10.0 mi SSE 8.1 mph - N/A   Clear
11:35 PM 76.3 °F - 65.7 °F 70% 29.88 in 10.0 mi SSE 9.2 mph - N/A   Clear
11:55 PM 76.1 °F - 64.9 °F 68% 29.88 in 10.0 mi SSE 12.7 mph - N/A   Clear